User: anonymous   Login
Location: Pianadetto
(44.4000°N, 10.1000°E)
Time: 08:31:28
(UTC+00:00)
Language:

Cosmos 1536 Rocket - Orbit

View from above orbital plane
View from above orbital plane
View from above satellite
View from above satellite

Ground track
Ground track

The orbit data is extracted from the following two-line orbital elements,

1 14700U 84013B   22222.39786925  .00000240  00000-0  26224-4 0  9993
2 14700  82.5369 199.9981 0018144 246.9106 264.7746 14.83482366 58621
Epoch (UTC): 10 August 2022 09:32:55
Eccentricity: 0.0018144
inclination: 82.5369°
perigee height: 605 km
apogee height: 631 km
right ascension of ascending node: 199.9981°
argument of perigee: 246.9106°
revolutions per day: 14.83482366
mean anomaly at epoch: 264.7746°
orbit number at epoch: 5862

The dashed part of the orbit path shows where the satellite is in the earth's shadow,  

DLR